Tracking 28125 objects as of 2-Oct-2023
HD Live streaming from Space Station
objects crossing your sky now

THORAD DELTA 1 DEB

Track THORAD DELTA 1 DEB now!
10-day predictions


NORAD ID: 42619
Int'l Code: 1974-089GL
Perigee: 975.4 km
Apogee: 1,255.5 km
Inclination: 102.1 °
Period: 107.4 minutes
Semi major axis: 7486 km
RCS: Unknown
Launch date: November 15, 1974
Source: United States (US)
Launch site: AIR FORCE WESTERN TEST RANGE (AFWTR)

Note: This is SATELLITE DEBRIS
Your satellite tracking list
Your tracking list is empty




NASA's NSSDC Master Catalog

Two Line Element Set (TLE):
1 42619U 74089GL  23274.70572796  .00002436  00000-0  41195-2 0  9998
2 42619 102.0584  67.8989 0187069  94.6716 281.8992 13.40255769481302
Source of the keplerian elements: AFSPC